Back to catalog

COSMOS 839 DEB

AliveUNKNOWN
NORAD 14919·DEBRIS·🇷🇺 Russia

Launched Jul 8, 1976 from Plesetsk Cosmodrome

Loading…

Next Passes (next 24 hours)

TLE

FreshSource: Space-Track

Epoch: Sep 14, 2026, 01:47 UTC

1 14919U 76067BG  26257.07497767 -.00000037  00000-0  61680-4 0  9995
2 14919  65.8052 171.3619 0716823  60.5796 319.7095 12.30402597645484

Track COSMOS 839 DEB in real time with AllMySat

Download on the App Store